{"data":{"norad_id":58717,"epoch":"2026-09-19T23:23:47.026176Z","epoch_age_seconds":195093,"freshness":"STALE","line1":"1 58717U 24002N   26262.97484984  .00002465  00000+0  84090-4 0  9998","line2":"2 58717  53.1609  45.9300 0000841 106.5442 253.5654 15.34385329151785","mean_motion":15.34385329,"eccentricity":8.41e-5,"inclination_deg":53.1609,"raan_deg":45.93,"arg_perigee_deg":106.5442,"mean_anomaly_deg":253.5654,"bstar":8.409e-5,"rev_number":15178,"period_min":93.848655405125,"perigee_km":462.17152752688,"apogee_km":463.32216418976,"semimajor_km":6840.8838458583,"source":"CELESTRAK","updated_at":"2026-09-21T09:00:33.949449Z"}}